This is the latest recevied weather packets stored in our database for station/object IW2NIA-3. If no packets are shown the sender has not sent any weather packets the latest 10 day(s).
| Time | Temp. | Humidity | Pressure | Rain* | Wind** | Luminosity | Snow |
|---|---|---|---|---|---|---|---|
| 1777281526 | 20.56° C | 58% | 1018.1 hPa | 0 mm | - | - | - |
| 1777280616 | 20° C | 61% | 1018.3 hPa | 0 mm | - | - | - |
| 1777279711 | 19.44° C | 61% | 1018.4 hPa | 0 mm | - | - | - |
| 1777278823 | 18.89° C | 64% | 1018.4 hPa | 0 mm | - | - | - |
| 1777277919 | 18.89° C | 64% | 1018.4 hPa | 0 mm | - | - | - |
| 1777277015 | 18.89° C | 64% | 1018.4 hPa | 0 mm | - | - | - |
| 1777276112 | 18.33° C | 65% | 1018.4 hPa | 0 mm | - | - | - |
| 1777275209 | 17.78° C | 66% | 1018.3 hPa | 0 mm | - | - | - |
| 1777274324 | 17.22° C | 71% | 1018.3 hPa | 0 mm | - | - | - |
| 1777273416 | 16.67° C | 72% | 1018.3 hPa | 0 mm | - | - | - |
| 1777272515 | 16.67° C | 76% | 1018.3 hPa | 0 mm | - | - | - |
| 1777271627 | 16.11° C | 78% | 1018.2 hPa | 0 mm | - | - | - |
| 1777270717 | 15.56° C | 81% | 1018.2 hPa | 0 mm | - | - | - |
| 1777269811 | 14.44° C | 87% | 1018.1 hPa | 0 mm | - | - | - |
| 1777268924 | 12.78° C | 89% | 1018.1 hPa | 0 mm | - | - | - |
| 1777268022 | 12.22° C | 89% | 1018.1 hPa | 0 mm | - | - | - |
| 1777267123 | 11.67° C | 89% | 1017.9 hPa | 0 mm | - | - | - |
| 1777266212 | 11.67° C | 89% | 1017.5 hPa | 0 mm | - | - | - |
| 1777265309 | 11.11° C | 89% | 1017.4 hPa | 0 mm | - | - | - |
| 1777264418 | 11.11° C | 89% | 1017.3 hPa | 0 mm | - | - | - |
| 1777263516 | 11.11° C | 88% | 1017.2 hPa | 0 mm | - | - | - |
| 1777262611 | 11.67° C | 88% | 1017.1 hPa | 0 mm | - | - | - |
| 1777261720 | 11.67° C | 88% | 1017 hPa | 0 mm | - | - | - |
| 1777260813 | 11.67° C | 88% | 1016.9 hPa | 0 mm | - | - | - |
| 1777259921 | 12.22° C | 88% | 1017 hPa | 0 mm | - | - | - |
* Rain latest hour (hover to see other rain measurements)
** Current wind speed in m/s (hover to see current wind gust speed)